Time,TemperatureF,DewpointF,PressureIn,WindDirection,WindDirectionDegrees,WindSpeedMPH,WindSpeedGustMPH,Humidity,HourlyPrecipIn,Conditions,Clouds,dailyrainin,SoftwareType,DateUTC
2013-03-10 00:05:00,30.2,27.9,29.71,NNE,22,6.3,-999.0,91,-99.99,,,0.00,Acu-Link.com,2013-03-10 06:05:00,
2013-03-10 00:21:00,30.4,28.1,29.72,NNW,337,10.9,-999.0,91,-99.99,,,0.00,Acu-Link.com,2013-03-10 06:21:00,
2013-03-10 00:36:00,30.6,28.3,29.72,NNW,337,7.3,-999.0,91,-99.99,,,0.00,Acu-Link.com,2013-03-10 06:36:00,
2013-03-10 00:51:00,30.6,28.3,29.75,West,270,7.8,-999.0,91,-99.99,,,0.00,Acu-Link.com,2013-03-10 06:51:00,
2013-03-10 01:06:00,30.6,28.3,29.76,WNW,292,5.8,-999.0,91,-99.99,,,0.00,Acu-Link.com,2013-03-10 07:06:00,
2013-03-10 01:21:00,30.6,28.3,29.76,NE,45,8.3,-999.0,91,-99.99,,,0.00,Acu-Link.com,2013-03-10 07:21:00,
2013-03-10 01:36:00,30.4,28.4,29.75,NNW,337,6.8,-999.0,92,-99.99,,,0.00,Acu-Link.com,2013-03-10 07:36:00,
2013-03-10 01:52:00,30.2,28.7,29.74,West,270,11.9,-999.0,94,-99.99,,,0.00,Acu-Link.com,2013-03-10 07:52:00,
2013-03-10 03:07:00,30.2,28.9,29.73,ENE,67,13.0,-999.0,95,-99.99,,,0.00,Acu-Link.com,2013-03-10 08:07:00,
2013-03-10 03:22:00,30.2,28.9,29.71,NE,45,12.5,-999.0,95,-99.99,,,0.00,Acu-Link.com,2013-03-10 08:22:00,
2013-03-10 03:37:00,30.2,28.9,29.72,NW,315,6.8,-999.0,95,-99.99,,,0.00,Acu-Link.com,2013-03-10 08:37:00,
2013-03-10 03:53:00,30.2,28.4,29.73,West,270,10.9,-999.0,93,-99.99,,,0.00,Acu-Link.com,2013-03-10 08:53:00,
2013-03-10 04:08:00,30.2,28.7,29.74,NW,315,9.9,-999.0,94,-99.99,,,0.00,Acu-Link.com,2013-03-10 09:08:00,
2013-03-10 04:23:00,30.2,28.7,29.75,NNW,337,11.4,-999.0,94,-99.99,,,0.00,Acu-Link.com,2013-03-10 09:23:00,
2013-03-10 04:38:00,28.9,27.7,29.75,WNW,292,9.4,-999.0,95,-99.99,,,0.00,Acu-Link.com,2013-03-10 09:38:00,
2013-03-10 04:53:00,28.8,27.3,29.75,West,270,14.5,-999.0,94,-99.99,,,0.00,Acu-Link.com,2013-03-10 09:53:00,
2013-03-10 05:08:00,27.7,25.7,29.77,NNE,22,16.1,-999.0,92,-99.99,,,0.00,Acu-Link.com,2013-03-10 10:08:00,
2013-03-10 05:23:00,27.5,25.7,29.79,NNW,337,9.9,-999.0,93,-99.99,,,0.00,Acu-Link.com,2013-03-10 10:23:00,
2013-03-10 05:39:00,26.2,23.7,29.79,ENE,67,13.5,-999.0,90,-99.99,,,0.00,Acu-Link.com,2013-03-10 10:39:00,
2013-03-10 05:54:00,25.9,22.8,29.80,ESE,112,12.5,-999.0,88,-99.99,,,0.00,Acu-Link.com,2013-03-10 10:54:00,
2013-03-10 06:09:00,25.9,23.1,29.81,NW,315,8.3,-999.0,89,-99.99,,,0.00,Acu-Link.com,2013-03-10 11:09:00,
2013-03-10 06:24:00,25.7,22.4,29.82,WNW,292,8.9,-999.0,87,-99.99,,,0.00,Acu-Link.com,2013-03-10 11:24:00,
2013-03-10 06:39:00,25.5,22.5,29.82,North,0,9.9,-999.0,88,-99.99,,,0.00,Acu-Link.com,2013-03-10 11:39:00,
2013-03-10 06:54:00,25.2,22.2,29.82,NW,315,9.9,-999.0,88,-99.99,,,0.00,Acu-Link.com,2013-03-10 11:54:00,
2013-03-10 07:10:00,24.4,21.1,29.82,WNW,292,13.0,-999.0,87,-99.99,,,0.00,Acu-Link.com,2013-03-10 12:10:00,
2013-03-10 07:25:00,23.7,20.1,29.83,WNW,292,7.8,-999.0,86,-99.99,,,0.00,Acu-Link.com,2013-03-10 12:25:00,
2013-03-10 07:40:00,23.4,19.6,29.84,NNE,22,10.4,-999.0,85,-99.99,,,0.00,Acu-Link.com,2013-03-10 12:40:00,
2013-03-10 07:55:00,22.5,18.4,29.84,NW,315,8.3,-999.0,84,-99.99,,,0.00,Acu-Link.com,2013-03-10 12:55:00,
2013-03-10 08:10:00,22.3,18.2,29.84,West,270,8.3,-999.0,84,-99.99,,,0.00,Acu-Link.com,2013-03-10 13:10:00,
2013-03-10 08:25:00,22.1,18.0,29.84,NW,315,12.5,-999.0,84,-99.99,,,0.00,Acu-Link.com,2013-03-10 13:25:00,
2013-03-10 08:40:00,21.6,17.5,29.85,West,270,10.9,-999.0,84,-99.99,,,0.00,Acu-Link.com,2013-03-10 13:40:00,
2013-03-10 08:56:00,21.4,17.9,29.85,North,0,10.9,-999.0,86,-99.99,,,0.00,Acu-Link.com,2013-03-10 13:56:00,
2013-03-10 09:11:00,21.2,18.2,29.85,NW,315,10.4,-999.0,88,-99.99,,,0.00,Acu-Link.com,2013-03-10 14:11:00,
2013-03-10 09:26:00,20.7,18.5,29.86,WNW,292,7.8,-999.0,91,-99.99,,,0.00,Acu-Link.com,2013-03-10 14:26:00,
2013-03-10 09:41:00,20.3,18.1,29.87,NNW,337,11.9,-999.0,91,-99.99,,,0.00,Acu-Link.com,2013-03-10 14:41:00,
2013-03-10 09:56:00,20.3,18.4,29.87,West,270,11.4,-999.0,92,-99.99,,,0.00,Acu-Link.com,2013-03-10 14:56:00,
2013-03-10 10:11:00,20.1,18.4,29.87,NNW,337,8.3,-999.0,93,-99.99,,,0.00,Acu-Link.com,2013-03-10 15:11:00,
2013-03-10 10:26:00,19.9,18.5,29.88,North,0,9.4,-999.0,94,-99.99,,,0.00,Acu-Link.com,2013-03-10 15:26:00,
2013-03-10 10:41:00,20.1,18.4,29.88,NW,315,13.5,-999.0,93,-99.99,,,0.00,Acu-Link.com,2013-03-10 15:41:00,
2013-03-10 10:56:00,21.2,18.7,29.89,NNW,337,13.5,-999.0,90,-99.99,,,0.00,Acu-Link.com,2013-03-10 15:56:00,
2013-03-10 11:11:00,21.2,18.7,29.90,NNW,337,5.3,-999.0,90,-99.99,,,0.00,Acu-Link.com,2013-03-10 16:11:00,
2013-03-10 11:26:00,21.2,18.5,29.91,NNE,22,10.4,-999.0,89,-99.99,,,0.00,Acu-Link.com,2013-03-10 16:26:00,
2013-03-10 11:41:00,21.7,19.0,29.89,NNW,337,7.8,-999.0,89,-99.99,,,0.00,Acu-Link.com,2013-03-10 16:41:00,
2013-03-10 11:56:00,21.0,18.8,29.91,West,270,8.3,-999.0,91,-99.99,,,0.00,Acu-Link.com,2013-03-10 16:56:00,
2013-03-10 12:11:00,21.2,18.7,29.91,West,270,14.5,-999.0,90,-99.99,,,0.00,Acu-Link.com,2013-03-10 17:11:00,
2013-03-10 12:26:00,21.0,18.0,29.90,NNE,22,20.2,-999.0,88,-99.99,,,0.00,Acu-Link.com,2013-03-10 17:26:00,
2013-03-10 12:42:00,22.3,18.5,29.92,NNW,337,14.0,-999.0,85,-99.99,,,0.00,Acu-Link.com,2013-03-10 17:42:00,
2013-03-10 12:57:00,22.3,17.7,29.92,East,90,9.9,-999.0,82,-99.99,,,0.00,Acu-Link.com,2013-03-10 17:57:00,
2013-03-10 13:12:00,24.1,19.4,29.92,NNW,337,7.3,-999.0,82,-99.99,,,0.00,Acu-Link.com,2013-03-10 18:12:00,
2013-03-10 13:27:00,24.8,19.5,29.92,WNW,292,9.9,-999.0,80,-99.99,,,0.00,Acu-Link.com,2013-03-10 18:27:00,
2013-03-10 13:42:00,25.0,19.4,29.92,West,270,14.5,-999.0,79,-99.99,,,0.00,Acu-Link.com,2013-03-10 18:42:00,
2013-03-10 13:58:00,23.9,18.6,29.92,NW,315,6.8,-999.0,80,-99.99,,,0.00,Acu-Link.com,2013-03-10 18:58:00,
2013-03-10 14:13:00,24.3,18.7,29.92,WNW,292,11.4,-999.0,79,-99.99,,,0.00,Acu-Link.com,2013-03-10 19:13:00,
2013-03-10 14:28:00,23.5,18.5,29.91,NNW,337,10.9,-999.0,81,-99.99,,,0.00,Acu-Link.com,2013-03-10 19:28:00,
2013-03-10 14:43:00,23.7,18.5,29.90,NNW,337,12.5,-999.0,80,-99.99,,,0.00,Acu-Link.com,2013-03-10 19:43:00,
2013-03-10 14:58:00,23.7,18.7,29.90,West,270,16.1,-999.0,81,-99.99,,,0.00,Acu-Link.com,2013-03-10 19:58:00,
2013-03-10 15:13:00,23.0,19.2,29.90,NNW,337,4.7,-999.0,85,-99.99,,,0.00,Acu-Link.com,2013-03-10 20:13:00,
2013-03-10 15:28:00,24.1,18.3,29.90,NW,315,7.3,-999.0,78,-99.99,,,0.00,Acu-Link.com,2013-03-10 20:28:00,
2013-03-10 15:58:00,25.2,18.4,29.90,North,0,10.4,-999.0,75,-99.99,,,0.00,Acu-Link.com,2013-03-10 20:58:00,
2013-03-10 16:14:00,26.1,18.7,29.91,NW,315,15.0,-999.0,73,-99.99,,,0.00,Acu-Link.com,2013-03-10 21:14:00,
2013-03-10 16:29:00,26.4,18.3,29.91,East,90,7.3,-999.0,71,-99.99,,,0.00,Acu-Link.com,2013-03-10 21:29:00,
2013-03-10 16:44:00,26.4,18.6,29.91,NW,315,15.5,-999.0,72,-99.99,,,0.00,Acu-Link.com,2013-03-10 21:44:00,
2013-03-10 16:59:00,26.1,18.3,29.91,NW,315,14.0,-999.0,72,-99.99,,,0.00,Acu-Link.com,2013-03-10 21:59:00,
2013-03-10 17:14:00,26.8,18.7,29.91,WNW,292,13.5,-999.0,71,-99.99,,,0.00,Acu-Link.com,2013-03-10 22:14:00,
2013-03-10 17:29:00,26.6,18.8,29.90,NNW,337,6.8,-999.0,72,-99.99,,,0.00,Acu-Link.com,2013-03-10 22:29:00,
2013-03-10 17:44:00,26.4,18.9,29.90,WNW,292,11.4,-999.0,73,-99.99,,,0.00,Acu-Link.com,2013-03-10 22:44:00,
2013-03-10 17:59:00,25.7,18.3,29.90,NW,315,9.4,-999.0,73,-99.99,,,0.00,Acu-Link.com,2013-03-10 22:59:00,
2013-03-10 18:14:00,25.3,18.5,29.90,West,270,5.3,-999.0,75,-99.99,,,0.00,Acu-Link.com,2013-03-10 23:14:00,
2013-03-10 18:30:00,25.2,18.1,29.90,NW,315,8.3,-999.0,74,-99.99,,,0.00,Acu-Link.com,2013-03-10 23:30:00,
2013-03-10 18:45:00,25.3,18.8,29.91,East,90,16.1,-999.0,76,-99.99,,,0.00,Acu-Link.com,2013-03-10 23:45:00,
2013-03-10 19:00:00,25.0,18.5,29.91,NW,315,10.9,-999.0,76,-99.99,,,0.00,Acu-Link.com,2013-03-11 00:00:00,
2013-03-10 19:15:00,24.8,18.6,29.91,WNW,292,8.3,-999.0,77,-99.99,,,0.00,Acu-Link.com,2013-03-11 00:15:00,
2013-03-10 19:30:00,24.6,18.4,29.92,NNW,337,15.0,-999.0,77,-99.99,,,0.00,Acu-Link.com,2013-03-11 00:30:00,
2013-03-10 19:45:00,24.4,18.2,29.91,WNW,292,7.3,-999.0,77,-99.99,,,0.00,Acu-Link.com,2013-03-11 00:45:00,
2013-03-10 20:00:00,23.9,17.8,29.92,West,270,7.3,-999.0,77,-99.99,,,0.00,Acu-Link.com,2013-03-11 01:00:00,
2013-03-10 20:15:00,23.7,17.9,29.92,NW,315,10.4,-999.0,78,-99.99,,,0.00,Acu-Link.com,2013-03-11 01:15:00,
2013-03-10 20:30:00,23.7,17.6,29.93,WNW,292,11.9,-999.0,77,-99.99,,,0.00,Acu-Link.com,2013-03-11 01:30:00,
2013-03-10 20:46:00,23.4,17.3,29.93,NNW,337,7.3,-999.0,77,-99.99,,,0.00,Acu-Link.com,2013-03-11 01:46:00,
2013-03-10 21:01:00,23.2,17.1,29.93,NNW,337,11.4,-999.0,77,-99.99,,,0.00,Acu-Link.com,2013-03-11 02:01:00,
2013-03-10 21:31:00,22.5,17.0,29.94,NW,315,7.3,-999.0,79,-99.99,,,0.00,Acu-Link.com,2013-03-11 02:31:00,
2013-03-10 21:46:00,22.1,16.9,29.94,NE,45,8.9,-999.0,80,-99.99,,,0.00,Acu-Link.com,2013-03-11 02:46:00,
2013-03-10 22:32:00,21.6,16.7,29.93,NW,315,8.9,-999.0,81,-99.99,,,0.00,Acu-Link.com,2013-03-11 03:32:00,
2013-03-10 22:47:00,20.8,15.9,29.93,NW,315,5.8,-999.0,81,-99.99,,,0.00,Acu-Link.com,2013-03-11 03:47:00,
2013-03-10 23:02:00,20.3,15.7,29.93,North,0,10.4,-999.0,82,-99.99,,,0.00,Acu-Link.com,2013-03-11 04:02:00,
2013-03-10 23:17:00,19.4,15.4,29.92,NNW,337,5.3,-999.0,84,-99.99,,,0.00,Acu-Link.com,2013-03-11 04:17:00,
2013-03-10 23:33:00,18.9,15.4,29.92,NNE,22,6.8,-999.0,86,-99.99,,,0.00,Acu-Link.com,2013-03-11 04:33:00,
2013-03-10 23:48:00,18.3,14.8,29.92,NNW,337,9.4,-999.0,86,-99.99,,,0.00,Acu-Link.com,2013-03-11 04:48:00,